N7BTW-13 Weather Reports


time (UTC)temp
F
wind
direction
speed
knots
gust
knots
rain 1hr
in
rain 24hr
in
rain mn
in
humidity
%
barometer
mb
20260503220006 94 130 1.7 2.6 0.00 0.00 0.00 28 1009.3
20260503215005 93 240 1.7 2.6 0.00 0.00 0.00 29 1009.4
20260503214006 93 327 1.7 2.6 0.00 0.00 0.00 32 1009.6
20260503213006 93 285 1.7 2.6 0.00 0.00 0.00 31 1009.7
20260503212008 93 328 1.7 2.6 0.00 0.00 0.00 30 1009.8
20260503211007 93 350 1.7 3.5 0.00 0.00 0.00 31 1009.9
20260503210008 93 10 1.7 3.5 0.00 0.00 0.00 31 1010.0
20260503205010 92 270 0.9 2.6 0.00 0.00 0.00 35 1010.1
20260503204011 91 322 1.7 2.6 0.00 0.00 0.00 34 1010.3
20260503203007 91 157 0.9 2.6 0.00 0.00 0.00 37 1010.4
20260503202009 90 18 0.9 1.7 0.00 0.00 0.00 40 1010.5
20260503201011 90 300 1.7 2.6 0.00 0.00 0.00 42 1010.6
20260503200008 89 141 1.7 2.6 0.00 0.00 0.00 43 1010.8
20260503195008 88 254 0.9 2.6 0.00 0.00 0.00 46 1010.9
20260503194007 87 249 0.9 2.6 0.00 0.00 0.00 43 1010.9
20260503193007 86 28 1.7 3.5 0.00 0.00 0.00 45 1011.0
20260503192006 86 306 1.7 2.6 0.00 0.00 0.00 45 1011.2
20260503191008 86 293 1.7 2.6 0.00 0.00 0.00 47 1011.3
20260503190008 85 242 0.9 2.6 0.00 0.00 0.00 48 1011.4
20260503185010 84 83 0.9 2.6 0.00 0.00 0.00 49 1011.4
20260503184007 83 232 0.9 1.7 0.00 0.00 0.00 51 1011.6
20260503183010 82 294 0.9 2.6 0.00 0.00 0.00 50 1011.7
20260503182010 82 45 0.9 2.6 0.00 0.00 0.00 52 1011.8
20260503181005 81 349 0.9 1.7 0.00 0.00 0.00 50 1011.9
20260503180008 80 44 0.9 2.6 0.00 0.00 0.00 51 1012.0
20260503175007 79 228 1.7 2.6 0.00 0.00 0.00 51 1012.1
20260503174008 78 201 0.9 2.6 0.00 0.00 0.00 53 1012.1
20260503173007 78 2 0.9 1.7 0.00 0.00 0.00 54 1012.2
20260503172009 77 129 0.9 2.6 0.00 0.00 0.00 54 1012.3
20260503171008 75 266 0.9 2.6 0.00 0.00 0.00 57 1012.3
20260503151008 56 0.0 0.0 0.00 0.00 0.00 99 1012.7
20260503131008 47 0.0 0.0 0.00 0.00 0.00 99 1012.3
20260503081007 52 0.0 0.0 0.00 0.00 0.00 99 1013.0
20260503072009 54 0.0 0.0 0.00 0.00 0.00 98 1013.0
20260503071005 55 0.0 0.0 0.00 0.00 0.00 98 1013.1
20260503055009 57 0.0 0.0 0.00 0.00 0.00 96 1012.8
20260503054010 57 203 0.0 2.6 0.00 0.00 0.00 94 1012.9
20260503053009 58 0.0 0.0 0.00 0.00 0.00 92 1013.2
20260503052008 58 0.0 0.0 0.00 0.00 0.00 93 1013.4
20260503051007 59 0.0 0.0 0.00 0.00 0.00 90 1013.3
20260503050008 59 0.0 0.0 0.00 0.00 0.00 91 1013.2
20260503045005 59 0.0 0.0 0.00 0.00 0.00 89 1013.2
20260503044008 60 0.0 0.0 0.00 0.00 0.00 88 1013.3
20260503043006 61 0.0 0.0 0.00 0.00 0.00 87 1013.5
20260503042008 61 0.0 0.0 0.00 0.00 0.00 86 1013.4
20260503041007 62 0.0 0.0 0.00 0.00 0.00 85 1013.3
20260503040007 62 250 0.9 1.7 0.00 0.00 0.00 85 1013.3
20260503035007 63 338 0.0 1.7 0.00 0.00 0.00 84 1013.2
20260503034007 63 270 0.0 2.6 0.00 0.00 0.00 83 1012.9
20260503033007 64 0.0 0.0 0.00 0.00 0.00 81 1013.0
20260503032006 65 0.0 0.0 0.00 0.00 0.00 79 1012.9
20260503031007 66 219 0.9 2.6 0.00 0.00 0.00 78 1013.0
20260503030006 66 214 1.7 2.6 0.00 0.00 0.00 77 1013.0
20260503025007 67 243 1.7 2.6 0.00 0.00 0.00 76 1012.8
20260503024006 68 211 1.7 3.5 0.00 0.00 0.00 75 1012.7
20260503023007 68 235 2.6 4.3 0.00 0.00 0.00 73 1012.7
20260503022009 69 210 2.6 4.3 0.00 0.00 0.00 73 1012.7
20260503021007 69 191 1.7 1.7 0.00 0.00 0.00 73 1012.2
20260503020006 69 210 0.9 2.6 0.00 0.00 0.00 73 1012.0
20260503015007 69 220 1.7 3.5 0.00 0.00 0.00 72 1011.9
20260503014007 70 200 2.6 4.3 0.00 0.00 0.00 71 1011.9
20260503013006 70 214 1.7 3.5 0.00 0.00 0.00 70 1011.9
20260503012007 70 192 1.7 2.6 0.00 0.00 0.00 70 1011.8
20260503011007 71 254 1.7 2.6 0.00 0.00 0.00 69 1011.8
20260503010006 72 0.0 0.0 0.00 0.00 0.00 64 1011.8
20260503005006 72 241 0.0 1.7 0.00 0.00 0.00 65 1011.8
20260503004007 72 113 0.0 0.9 0.00 0.00 0.00 65 1011.8
20260503003006 72 0.0 0.0 0.00 0.00 0.00 64 1011.8
20260503002006 72 237 0.9 1.7 0.00 0.00 0.00 64 1011.8
20260503001007 73 230 1.7 2.6 0.00 0.00 0.00 63 1011.9
20260503000006 74 220 1.7 1.7 0.00 0.00 0.00 62 1012.0
20260502235005 74 224 0.9 1.7 0.00 0.00 0.00 63 1012.0
20260502234006 74 257 0.9 2.6 0.00 0.00 0.00 63 1012.3
20260502233007 74 325 1.7 2.6 0.00 0.00 0.00 63 1012.4
20260502232005 73 217 1.7 3.5 0.00 0.00 0.00 65 1012.6
20260502231008 71 252 1.7 2.6 0.00 0.00 0.00 67 1012.8
20260502230007 71 279 0.9 1.7 0.00 0.00 0.00 67 1012.9
20260502225007 71 273 0.9 2.6 0.00 0.00 0.00 70 1013.0
20260502224006 70 117 0.9 2.6 0.00 0.00 0.00 68 1013.2
20260502223006 71 243 0.9 1.7 0.00 0.00 0.00 68 1013.4
20260502222007 71 290 1.7 3.5 0.00 0.00 0.00 65 1013.6
20260502221007 73 252 1.7 1.7 0.00 0.00 0.00 64 1013.7